Location: Bucharest
(44.4268°N, 26.1025°E)
Time: 13:22:21
(UTC+03:00)

ESTCUBE 1 - Pass Details

Date: 03 July 2022
Orbit: 645 x 657 km, 97.9° (Epoch: 15 August)

Event Time Altitude Azimuth Distance (km) Brightness Sun altitude
Exits shadow 22:13:40 11° 110° (ESE) 1,998 ? -10.4°
Maximum altitude 22:16:45 20° 64° (ENE) 1,488 ? -10.7°
Drops below altitude 10° 22:20:01 10° 17° (NNE) 2,060 ? -11.1°
Sets 22:22:42 0° 1° (N) 2,978 ? -11.4°
